Location: Cercedilla
(40.7379°N, 4.0638°W)
Time: 03:23:43
(UTC+00:00)

Iridium 2 - Pass Details

Date: 07 June 2020
Orbit: 505 x 514 km, 85.5° (Epoch: 09 July)

Event Time Altitude Azimuth Distance (km) Brightness Sun altitude
Rises 01:56:48 0° 0° (N) 2,621 8.4 -22.2°
Reaches altitude 10° 01:58:57 10° 5° (N) 1,732 7.3 -22.1°
Maximum altitude 02:02:40 56° 84° (E) 611 4.1 -21.7°
Enters shadow 02:03:15 49° 122° (ESE) 659 4.1 -21.7°
